Tracking 25723 objects as of 29-Jun-2022
HD Live streaming from Space Station
objects crossing your sky now

DELTA 1 DEB

Track DELTA 1 DEB now!
10-day predictions


NORAD ID: 12234
Int'l Code: 1978-026CB
Perigee: 868.9 km
Apogee: 911.3 km
Inclination: 99.2 °
Period: 102.6 minutes
Semi major axis: 7261 km
RCS: 0.0288 m2 (small)
Launch date: March 5, 1978
Source: United States (US)
Launch site: AIR FORCE WESTERN TEST RANGE (AFWTR)

Note: This is SATELLITE DEBRIS
aabbcc
Your satellite tracking list
Your tracking list is empty




NASA's NSSDC Master Catalog

Two Line Element Set (TLE):
1 12234U 78026CB  22179.88735700 -.00000137  00000-0 -58833-4 0  9998
2 12234  99.1515 154.7624 0029184 142.0186 247.7348 14.03129157118614
Source of the keplerian elements: AFSPC